Wetbulb
71.02 69.82 65.77 61.87 54.47 51.16 49.73 53.45 58.43 56.92 58.53 63.23 66.54 63.61 60.38 61.34 57.88 55.53 70.32 71.24 71.14 72.11 73.67 74.86 76.25 76.42 75.46 74.84 74.54 74.24 74.47 74.04 73.56 72.89 72.72 73.15 73.71 74.03 74.26 75.09 75.04 75.05 74.29 74.10 73.83 73.84 73.75 73.68 73.71
64.03 66.13 62.27 58.01 46.95 46.42 51.08 56.49 56.08 57.65 63.09 64.50 66.79 65.28 63.06 60.59 65.84 66.63 68.92 71.07 70.62 70.90 72.48 74.41 76.45 75.95 74.75 74.28 74.57 74.57 73.74 73.28 73.61 73.61 73.91 74.54 74.64 74.84 74.79 74.64 74.44 74.11 73.84 74.38 74.52 73.71 73.45 73.56 73.83
64.77 63.30 55.17 49.68 46.09 44.58 49.63 56.57 57.96 60.42 62.40 64.44 64.30 66.93 65.18 61.28 66.32 66.38 70.99 71.75 72.00 71.97 73.38 74.07 75.70 75.12 74.56 74.39 73.79 74.10 74.14 74.22 74.57 74.82 74.32 74.15 73.80 73.28 72.98 72.83 72.73 72.62 72.49 72.44 72.48 72.47 71.82 71.43 72.16
57.86 54.85 54.06 46.33 44.45 51.39 55.38 58.48 59.93 60.72 61.75 66.41 65.75 62.92 68.01 69.76 67.42 68.66 72.52 73.08 72.32 72.53 73.40 74.70 75.60 75.40 74.29 73.55 73.61 74.85 74.80 74.12 73.87 73.38 73.12 72.58 72.29 71.77 71.45 71.12 70.78 70.87 70.93 70.93 71.13 70.89 70.59 70.57 70.58
55.05 52.50 45.65 45.53 48.02 55.22 56.92 60.36 60.81 61.07 63.15 64.52 66.46 63.43 64.94 68.60 69.78 69.71 71.28 72.28 71.47 71.32 72.25 73.62 75.27 75.00 74.84 74.69 74.15 73.47 72.80 72.33 72.24 72.14 71.72 71.25 70.80 70.38 69.84 69.64 69.59 69.40 69.36 69.56 69.53 69.29 69.24 69.26 69.36
50.53 51.85 43.54 42.55 51.15 56.49 58.19 61.66 62.41 61.11 63.61 64.19 65.00 63.91 63.57 68.46 68.11 68.41 70.92 70.91 71.47 70.06 72.53 72.65 74.69 74.94 74.17 73.20 72.75 71.96 71.13 70.56 70.26 69.95 70.00 69.72 69.45 69.22 68.10 66.49 66.09 66.08 66.19 66.58 66.79 66.59 66.80 67.24 67.60
50.15 47.12 44.74 46.44 48.22 54.55 58.08 61.84 60.59 60.25 62.49 63.35 65.42 61.12 63.87 66.37 67.94 68.61 70.44 69.32 69.62 71.05 70.90 71.39 72.25 72.41 72.63 72.04 71.15 70.11 69.11 68.29 68.08 68.56 68.52 68.74 68.49 68.41 66.81 64.87 65.01 64.82 65.09 65.19 65.80 66.51 66.83 67.20 67.57
50.79 47.99 45.16 48.23 47.11 52.13 58.05 60.08 63.01 61.05 61.43 67.09 66.36 60.33 60.91 66.46 68.57 67.35 69.16 68.92 69.64 70.11 70.23 70.76 70.58 69.98 68.98 68.67 70.22 69.03 68.12 67.71 68.05 67.73 66.84 67.67 67.85 67.17 66.06 68.18 64.95 64.61 65.83 65.80 66.52 67.31 68.29 69.21 69.83
52.71 44.71 44.67 46.60 47.02 53.18 58.05 58.49 61.58 65.34 62.47 65.69 66.35 64.84 67.02 68.77 66.42 65.58 67.26 67.93 68.40 68.58 69.43 70.01 69.71 68.92 67.37 66.98 68.04 69.22 68.97 68.03 67.91 66.91 69.23 66.44 61.58 60.37 61.69 65.99 64.72 65.30 66.84 68.81 68.13 69.24 69.23 68.47 66.26
46.50 43.20 46.26 51.63 51.02 54.60 57.06 57.34 60.88 61.32 61.92 60.05 63.27 66.28 67.46 66.46 63.80 64.09 64.75 64.89 65.61 66.84 68.25 69.15 69.53 68.44 66.80 68.11 66.38 64.58 66.26 63.86 62.02 61.78 61.87 60.47 59.90 61.29 63.66 64.36 67.97 67.92 67.91 68.07 67.90 68.06 67.34 64.37 58.83
47.58 45.25 50.44 52.26 52.98 55.04 56.58 59.94 62.41 60.01 58.19 61.52 59.94 62.23 63.92 63.04 62.61 63.38 63.35 64.27 65.47 67.69 67.92 69.26 69.39 68.68 67.59 67.10 65.89 66.47 63.90 62.76 61.27 60.81 60.32 59.85 60.27 59.50 59.83 58.85 59.69 58.90 62.93 59.05 60.09 59.04 58.98 58.50 58.34
42.26 47.86 50.35 51.77 53.47 52.33 53.61 56.76 61.39 61.61 61.85 64.30 64.01 64.30 63.87 62.59 62.30 62.39 62.29 67.27 67.90 68.22 69.18 70.19 69.65 69.02 67.96 68.34 68.30 65.01 64.18 62.01 60.55 60.01 59.97 58.43 59.02 58.73 60.07 58.66 58.84 57.84 56.65 56.72 57.37 56.73 57.93 58.49 59.26
43.57 46.31 49.23 51.02 50.98 50.60 53.78 52.71 56.98 60.17 63.36 64.25 63.09 63.05 62.87 62.62 62.19 63.30 65.13 68.75 69.48 69.21 69.75 70.08 70.59 69.44 68.48 66.83 66.63 63.52 61.68 61.23 60.63 59.82 59.61 59.05 59.09 58.50 59.18 57.38 57.29 56.30 56.24 55.68 56.30 55.89 57.49 57.77 57.83
46.99 47.01 47.95 49.02 48.76 49.54 50.17 51.20 53.46 60.52 62.04 62.17 61.77 61.74 63.05 63.71 62.77 62.53 64.89 68.34 69.34 69.75 70.39 70.82 70.30 69.13 68.70 66.82 64.40 62.65 60.78 61.37 60.19 59.16 59.14 59.47 58.39 58.40 58.58 56.11 55.59 55.36 55.94 56.99 57.27 56.85 56.01 56.55 57.01
48.26 44.53 46.21 47.29 47.64 48.91 51.17 49.45 51.02 60.49 60.39 59.91 61.08 63.41 65.36 63.35 63.54 63.61 65.27 66.42 69.34 69.70 70.59 68.93 68.61 67.81 66.76 65.65 65.08 61.97 62.13 61.24 59.95 58.74 59.22 59.22 58.43 57.64 56.54 54.53 53.83 53.92 55.38 56.76 56.14 56.61 56.28 55.76 56.20
45.43 44.20 39.29 45.02 47.70 49.87 47.75 43.40 50.97 58.75 58.96 61.22 61.68 62.24 63.55 63.67 63.98 64.72 66.41 67.09 68.55 69.70 68.24 68.53 69.28 68.41 66.78 65.31 64.55 62.44 61.41 59.31 59.91 59.03 58.29 58.77 58.39 58.18 54.88 54.33 52.79 55.69 56.15 55.42 55.24 55.26 54.48 55.16 55.83
43.96 38.92 39.71 43.02 47.95 48.46 47.30 44.87 51.71 56.44 59.44 60.89 60.67 60.84 62.13 61.66 63.40 65.21 67.23 68.58 68.83 68.45 67.75 66.99 67.22 66.05 64.62 64.13 61.77 60.46 60.76 59.30 58.80 58.41 57.75 57.98 58.33 58.56 54.11 53.39 54.25 53.95 54.07 53.75 54.20 54.40 53.38 53.12 53.06
39.58 40.29 41.77 42.57 47.03 47.29 45.59 46.93 50.66 53.28 54.17 59.38 58.87 59.24 59.42 60.28 64.16 67.23 68.65 68.39 67.97 67.44 67.06 66.74 66.27 64.18 63.67 62.97 60.55 60.39 59.70 58.45 58.35 57.52 56.64 57.35 56.91 56.95 55.83 53.30 54.34 53.28 52.59 52.22 52.11 51.76 52.45 51.74 51.25
45.73 44.16 43.69 46.82 49.39 46.48 45.40 46.59 49.67 51.41 54.40 57.59 56.73 57.20 57.75 63.39 64.02 66.76 67.89 67.67 66.61 65.91 65.15 64.89 64.09 64.03 63.30 60.61 59.66 57.63 57.32 56.79 56.39 56.56 56.97 55.73 56.55 55.24 54.13 52.22 52.41 53.10 51.65 51.76 52.15 52.14 49.61 52.11 50.10
45.94 43.78 43.15 46.48 48.63 47.22 46.50 45.95 48.92 51.90 51.25 58.34 56.76 56.78 58.50 61.95 66.08 67.01 66.92 66.86 65.89 64.88 64.06 63.89 64.09 63.44 62.42 60.33 59.79 58.63 57.57 56.94 56.59 56.06 55.35 55.36 54.99 54.55 54.34 53.71 52.94 52.92 51.49 50.46 50.51 50.15 49.79 48.57 50.32
43.66 42.03 43.38 43.41 47.10 47.62 46.08 44.10 46.98 52.50 53.80 57.40 58.22 58.70 63.35 62.88 62.47 65.90 66.04 65.32 64.75 63.72 63.50 63.80 63.56 62.87 62.54 61.65 58.70 56.93 56.54 56.06 55.27 54.12 53.16 53.29 55.24 55.47 54.05 53.36 52.76 50.70 51.02 50.87 49.79 50.00 49.02 45.59 46.18
41.16 47.67 47.82 46.34 43.18 37.96 45.69 37.05 44.66 48.78 50.58 55.67 56.59 56.55 63.18 60.67 60.31 65.71 65.53 64.06 63.91 63.60 64.39 63.50 63.65 62.99 62.36 59.22 56.32 54.22 52.94 52.91 54.30 54.36 52.32 52.68 53.75 54.26 54.96 53.82 52.89 50.85 50.41 50.30 49.98 50.87 48.68 45.63 44.81
45.63 50.38 48.51 48.18 43.87 42.20 43.51 37.20 40.80 46.16 48.49 51.48 54.81 56.35 56.99 63.37 64.47 65.67 65.12 64.49 64.28 64.51 63.61 63.85 63.29 62.13 61.28 58.21 57.42 54.93 55.35 55.08 54.92 53.77 51.73 51.66 51.74 53.18 54.79 53.46 53.09 51.99 51.85 49.50 50.64 48.98 47.27 47.12 46.30
51.35 48.02 46.85 45.42 41.59 36.07 41.10 40.35 42.02 44.18 47.33 51.90 53.65 56.55 57.48 61.98 66.28 66.10 65.31 64.89 64.11 63.87 63.17 63.34 62.46 60.54 59.48 59.68 58.50 56.67 54.89 54.26 53.81 52.05 50.77 50.35 50.68 51.05 52.65 53.94 51.82 51.46 50.96 50.96 50.11 49.43 47.03 47.11 47.28
47.44 43.41 35.32 34.39 34.39 35.83 44.68 43.05 43.12 48.54 54.88 55.89 53.75 55.11 59.44 63.51 66.23 65.29 64.38 64.46 64.02 62.82 63.07 62.77 61.22 59.39 59.31 58.42 58.68 58.00 55.35 54.30 52.99 52.05 51.69 51.19 50.20 50.43 50.83 51.45 50.69 50.60 50.98 49.95 50.85 50.10 47.03 46.80 46.67
46.03 43.61 37.12 32.79 34.99 38.89 46.13 40.18 46.23 53.85 56.55 58.14 58.81 59.83 59.23 60.18 64.04 63.92 63.93 64.36 63.94 63.05 62.32 62.14 60.69 59.04 58.80 58.66 58.23 57.33 56.87 55.63 54.78 52.95 53.50 52.07 51.66 51.23 52.34 51.38 51.48 50.14 50.01 50.69 51.38 48.95 48.04 48.45 46.66
45.94 41.26 48.75 43.41 41.56 37.96 40.97 46.89 51.53 53.07 53.38 55.89 56.64 57.65 58.35 57.90 59.33 63.15 64.40 64.11 63.41 62.58 61.70 60.61 60.32 59.38 58.61 58.30 57.79 56.67 55.46 55.35 54.29 54.60 52.07 53.07 52.34 53.39 52.09 52.04 50.23 49.16 48.19 50.81 50.82 48.26 47.46 47.29 47.05
46.16 49.71 41.87 41.07 34.67 33.66 40.28 42.59 43.59 48.16 49.76 52.55 54.27 54.32 56.51 58.08 59.83 62.65 63.50 64.10 63.98 63.18 61.74 61.33 60.78 59.36 59.22 58.29 57.44 56.65 56.21 55.40 54.63 52.41 51.53 50.78 51.98 52.45 52.04 51.01 50.12 48.88 47.35 49.07 50.57 48.62 47.29 46.81 46.92
44.27 44.49 42.99 41.40 41.85 35.49 34.71 38.61 48.55 47.88 50.84 51.22 51.95 54.15 53.99 56.29 55.73 60.97 59.86 58.81 59.93 62.55 61.88 61.18 60.79 59.64 58.38 58.13 56.44 55.97 56.16 55.10 53.72 52.08 52.18 52.24 51.00 51.52 51.34 51.15 49.71 49.54 47.05 48.25 49.04 49.24 49.10 48.06 47.70
46.60 43.59 43.50 36.82 36.40 41.08 39.49 38.29 52.22 51.83 51.32 52.35 53.26 54.89 54.19 55.40 56.39 56.28 56.48 58.54 62.62 62.54 62.13 61.27 61.13 58.99 58.38 56.87 56.32 55.51 55.48 54.46 52.96 51.74 52.42 52.18 50.96 51.79 51.95 51.95 50.22 49.98 48.79 49.02 49.62 49.17 52.44 47.87 47.55
MSLP
1009.73 1010.15 1010.40 1010.52 1012.15 1013.62 1014.22 1013.71 1012.40 1010.48 1008.98 1006.83 1006.83 1007.22 1008.40 1008.99 1009.93 1011.55 1012.33 1012.37 1012.95 1014.04 1014.05 1014.20 1014.60 1014.69 1014.97 1015.29 1015.51 1015.80 1015.92 1015.98 1016.18 1016.28 1016.42 1016.44 1016.45 1016.47 1016.51 1016.50 1016.44 1016.35 1016.27 1016.21 1016.17 1016.14 1016.02 1015.95 1015.77
1009.21 1009.96 1010.34 1010.37 1011.26 1013.20 1013.28 1011.91 1011.28 1009.21 1007.83 1006.99 1007.42 1008.01 1008.58 1009.77 1009.63 1011.19 1012.22 1012.78 1012.98 1013.66 1014.06 1014.39 1014.70 1014.84 1015.13 1015.45 1015.68 1015.84 1016.05 1016.13 1016.26 1016.34 1016.53 1016.59 1016.55 1016.56 1016.55 1016.61 1016.60 1016.47 1016.36 1016.27 1016.22 1016.16 1016.08 1015.92 1015.80
1008.95 1009.02 1009.88 1009.79 1010.20 1011.38 1011.88 1010.68 1008.85 1008.29 1007.77 1006.64 1007.29 1007.97 1008.91 1009.95 1010.00 1010.75 1011.87 1012.55 1012.63 1013.83 1014.21 1014.45 1014.78 1014.97 1015.23 1015.63 1015.82 1015.98 1016.08 1016.18 1016.33 1016.41 1016.71 1016.80 1016.80 1016.87 1016.98 1016.96 1017.00 1016.90 1016.84 1016.71 1016.60 1016.44 1016.28 1016.09 1015.95
1008.50 1008.80 1008.91 1008.97 1009.68 1010.50 1009.82 1009.02 1008.08 1007.46 1007.00 1006.57 1007.54 1008.58 1009.55 1009.65 1009.88 1010.46 1011.64 1012.23 1013.11 1013.98 1014.21 1014.51 1014.96 1015.12 1015.46 1015.69 1015.85 1016.03 1016.14 1016.27 1016.53 1016.75 1016.99 1017.09 1017.20 1017.21 1017.23 1017.22 1017.29 1017.16 1017.08 1016.92 1016.75 1016.64 1016.51 1016.36 1016.12
1008.35 1008.68 1008.91 1008.78 1008.63 1009.11 1008.67 1007.73 1007.70 1007.10 1007.38 1006.99 1007.33 1009.24 1009.71 1009.99 1010.08 1010.49 1011.51 1012.49 1013.19 1014.11 1014.39 1014.71 1015.05 1015.35 1015.68 1015.90 1016.13 1016.29 1016.51 1016.78 1016.90 1017.05 1017.23 1017.26 1017.29 1017.43 1017.38 1017.33 1017.42 1017.31 1017.20 1017.06 1016.95 1016.78 1016.65 1016.44 1016.20
1008.68 1008.42 1008.90 1008.62 1008.01 1007.65 1007.61 1006.13 1005.95 1006.74 1007.00 1007.30 1008.13 1009.51 1010.21 1010.27 1010.54 1010.78 1011.62 1012.54 1013.22 1013.92 1014.49 1014.89 1015.23 1015.59 1015.95 1016.20 1016.39 1016.66 1016.70 1016.89 1017.09 1017.18 1017.36 1017.50 1017.49 1017.55 1017.49 1017.39 1017.54 1017.48 1017.36 1017.16 1017.06 1016.83 1016.60 1016.46 1016.24
1008.46 1008.65 1008.59 1007.91 1007.07 1007.29 1006.29 1005.24 1005.96 1006.12 1005.79 1006.74 1007.54 1009.31 1010.28 1010.47 1010.50 1010.58 1011.81 1012.61 1013.41 1013.91 1014.46 1015.09 1015.44 1015.78 1016.20 1016.40 1016.62 1016.82 1016.89 1017.04 1017.14 1017.31 1017.55 1017.61 1017.66 1017.62 1017.64 1017.48 1017.48 1017.48 1017.29 1017.23 1017.10 1016.77 1016.53 1016.41 1016.24
1007.58 1008.14 1008.04 1006.62 1006.16 1004.97 1003.60 1004.95 1005.72 1004.50 1005.00 1006.27 1006.70 1008.37 1009.51 1009.85 1009.86 1010.28 1011.51 1012.40 1013.13 1013.81 1014.43 1015.09 1015.59 1015.98 1016.35 1016.56 1016.72 1016.87 1016.98 1017.11 1017.16 1017.20 1017.30 1017.52 1017.63 1017.62 1017.59 1017.51 1017.48 1017.39 1017.24 1017.24 1016.97 1016.56 1016.38 1016.36 1016.09
1006.90 1007.67 1007.33 1005.74 1005.34 1003.93 1003.20 1003.97 1004.30 1004.71 1005.96 1006.21 1006.57 1007.20 1008.58 1009.37 1009.67 1010.43 1011.47 1012.37 1012.97 1013.74 1014.32 1014.82 1015.32 1015.75 1016.04 1016.49 1016.65 1016.85 1017.03 1017.20 1017.21 1017.20 1017.28 1017.49 1017.76 1017.51 1017.52 1017.48 1017.51 1017.48 1017.20 1017.02 1016.88 1016.58 1016.49 1016.35 1016.11
1007.11 1007.10 1006.05 1004.67 1004.50 1004.02 1003.09 1002.90 1003.72 1004.36 1006.17 1008.08 1007.89 1008.66 1009.28 1009.67 1009.96 1010.26 1011.21 1011.86 1012.41 1013.32 1014.18 1014.68 1014.85 1015.03 1015.56 1015.90 1016.43 1016.84 1016.95 1017.17 1017.37 1017.61 1017.58 1017.72 1017.73 1017.61 1017.64 1017.60 1017.47 1017.41 1017.30 1017.12 1017.02 1016.85 1016.51 1016.31 1016.17
1006.77 1006.40 1005.37 1004.02 1003.76 1003.26 1002.77 1002.66 1003.00 1005.66 1008.02 1008.63 1009.00 1009.37 1009.58 1010.14 1010.22 1010.24 1010.50 1010.90 1011.69 1012.64 1013.51 1014.13 1014.52 1014.70 1014.92 1015.46 1016.39 1016.80 1016.97 1017.32 1017.55 1017.74 1017.92 1017.96 1017.93 1017.90 1017.90 1017.79 1017.85 1017.78 1017.72 1017.64 1017.38 1017.03 1016.75 1016.50 1016.39
1006.50 1005.63 1004.82 1003.67 1003.02 1002.77 1002.92 1002.55 1002.92 1004.57 1006.51 1006.35 1007.64 1007.33 1008.09 1009.98 1010.31 1010.32 1010.36 1010.91 1011.43 1012.54 1013.25 1013.72 1014.18 1014.61 1014.47 1015.20 1015.88 1016.44 1016.80 1017.38 1017.83 1018.02 1018.18 1018.33 1018.26 1018.17 1018.19 1018.08 1018.13 1018.13 1017.98 1017.78 1017.64 1017.33 1017.00 1016.92 1016.66
1005.91 1005.19 1004.15 1003.31 1002.85 1002.50 1002.11 1002.37 1003.78 1005.52 1006.80 1006.76 1007.38 1007.28 1008.07 1009.55 1010.17 1010.20 1010.71 1011.25 1011.67 1012.53 1013.30 1013.65 1014.20 1014.59 1014.67 1015.17 1015.83 1016.31 1016.85 1017.51 1018.07 1018.31 1018.42 1018.38 1018.33 1018.41 1018.31 1018.29 1018.25 1018.24 1018.15 1017.94 1017.81 1017.60 1017.43 1017.27 1017.03
1005.00 1004.60 1003.94 1003.11 1002.68 1002.38 1002.53 1002.37 1003.14 1006.99 1006.51 1007.18 1007.60 1008.10 1008.53 1009.82 1009.89 1010.26 1010.78 1011.76 1011.81 1012.55 1013.30 1013.55 1014.03 1014.34 1014.53 1015.29 1015.74 1016.44 1016.75 1017.35 1017.94 1018.51 1018.63 1018.43 1018.36 1018.44 1018.46 1018.55 1018.50 1018.49 1018.45 1018.20 1018.00 1017.92 1017.82 1017.58 1017.34
1004.60 1004.68 1003.83 1003.29 1002.48 1002.28 1002.33 1002.71 1003.33 1005.52 1007.23 1007.57 1008.92 1009.86 1010.05 1010.51 1010.16 1010.30 1010.51 1011.59 1011.88 1012.78 1013.54 1013.86 1013.89 1014.16 1014.88 1015.68 1015.97 1016.31 1016.93 1017.31 1017.84 1018.50 1018.74 1018.56 1018.30 1018.42 1018.60 1018.72 1018.88 1018.85 1018.68 1018.42 1018.25 1018.15 1017.93 1017.94 1017.51
1005.31 1004.67 1004.45 1003.47 1002.66 1002.13 1002.55 1003.17 1003.34 1005.18 1006.67 1009.21 1009.77 1010.63 1011.83 1011.53 1010.72 1010.08 1010.00 1010.84 1011.85 1012.63 1013.51 1013.86 1014.01 1014.56 1015.42 1015.97 1016.15 1016.34 1016.84 1017.41 1017.62 1018.42 1018.77 1018.66 1018.30 1018.44 1018.61 1018.81 1019.13 1019.16 1019.08 1018.86 1018.92 1018.83 1018.47 1018.47 1018.32
1005.40 1005.06 1004.47 1003.57 1002.22 1001.98 1002.14 1002.74 1003.00 1004.31 1006.78 1008.59 1009.42 1010.10 1009.74 1010.06 1011.46 1009.84 1009.90 1010.18 1011.48 1012.14 1012.88 1013.69 1014.34 1014.82 1015.60 1016.01 1016.28 1016.45 1017.08 1017.44 1017.77 1018.42 1018.79 1018.65 1018.40 1018.46 1018.65 1018.99 1019.37 1019.37 1019.45 1019.46 1019.48 1019.19 1019.03 1018.79 1018.60
1005.72 1005.30 1004.32 1003.37 1001.95 1001.58 1001.85 1002.19 1002.33 1002.49 1003.51 1006.81 1008.57 1008.74 1008.33 1010.26 1012.33 1010.97 1011.36 1010.68 1011.23 1012.19 1012.62 1013.47 1014.37 1015.10 1015.64 1016.23 1016.43 1016.78 1017.23 1017.76 1018.08 1018.58 1018.83 1018.72 1018.58 1018.61 1018.96 1019.36 1019.51 1019.63 1019.75 1019.94 1019.88 1019.67 1019.27 1019.12 1018.81
1004.87 1004.62 1004.04 1002.73 1001.73 1000.81 1001.27 1002.05 1002.13 1002.27 1003.11 1005.71 1007.01 1006.41 1008.09 1009.58 1009.86 1012.06 1011.41 1011.11 1011.87 1012.29 1012.56 1013.15 1014.20 1015.09 1015.62 1016.15 1016.56 1017.15 1017.67 1018.12 1018.62 1018.75 1018.73 1018.67 1018.78 1018.95 1019.39 1019.57 1019.69 1019.89 1020.12 1020.40 1020.35 1019.98 1019.84 1019.63 1019.13
1004.31 1004.32 1003.91 1002.85 1001.98 1001.88 1001.90 1002.12 1001.94 1002.10 1002.51 1003.37 1003.90 1005.41 1007.47 1009.57 1011.90 1012.42 1011.85 1011.24 1011.20 1011.74 1012.40 1013.29 1014.15 1015.05 1015.51 1015.83 1016.33 1016.87 1017.48 1018.11 1018.58 1018.75 1018.85 1018.90 1019.01 1019.33 1019.58 1019.87 1020.04 1020.11 1020.43 1020.67 1020.60 1020.45 1020.54 1020.35 1019.82
1004.11 1004.34 1004.04 1003.58 1002.76 1002.38 1002.29 1002.50 1002.29 1001.61 1001.68 1002.08 1002.27 1003.02 1006.11 1006.94 1008.11 1008.97 1011.18 1011.54 1011.25 1011.23 1012.01 1013.17 1014.26 1015.14 1015.55 1015.87 1016.32 1016.94 1017.58 1018.32 1018.81 1019.13 1019.22 1019.15 1019.15 1019.57 1019.84 1019.94 1020.13 1020.22 1020.50 1020.95 1020.90 1020.79 1020.80 1021.01 1020.37
1004.08 1003.78 1003.96 1003.90 1004.00 1004.24 1003.83 1004.03 1003.12 1002.05 1001.67 1001.65 1001.66 1002.44 1004.85 1006.29 1007.13 1008.17 1009.80 1010.85 1010.73 1011.35 1012.46 1013.07 1013.83 1014.91 1015.66 1016.23 1016.80 1017.16 1017.45 1018.09 1018.62 1019.04 1019.19 1019.39 1019.34 1019.71 1019.89 1020.03 1020.27 1020.49 1020.70 1020.83 1020.95 1020.93 1021.06 1021.15 1021.51
1003.75 1003.79 1004.09 1004.55 1005.11 1005.38 1004.79 1004.92 1003.46 1002.31 1002.13 1001.73 1001.56 1001.53 1002.12 1003.89 1005.57 1007.01 1008.55 1008.87 1009.73 1011.03 1012.05 1013.09 1013.70 1014.61 1015.42 1016.18 1016.57 1017.39 1017.85 1018.05 1018.26 1018.91 1019.11 1019.36 1019.57 1019.80 1019.82 1020.19 1020.45 1020.64 1020.75 1020.84 1021.08 1021.20 1021.38 1021.58 1021.77
1003.42 1004.25 1004.96 1005.45 1006.26 1006.77 1006.03 1005.85 1004.68 1003.60 1002.44 1001.63 1001.25 1001.37 1001.67 1002.71 1004.36 1006.79 1008.58 1010.73 1012.23 1012.80 1011.78 1012.76 1014.21 1014.96 1015.53 1016.05 1016.67 1017.50 1018.14 1018.44 1018.80 1019.09 1019.30 1019.42 1019.68 1019.89 1019.91 1020.18 1020.30 1020.44 1020.75 1021.00 1021.19 1021.25 1021.50 1021.74 1021.83
1003.94 1005.13 1006.40 1007.45 1007.50 1007.19 1006.48 1006.07 1004.92 1003.81 1004.29 1003.30 1001.72 1002.59 1003.70 1002.90 1005.26 1007.26 1008.73 1009.81 1010.10 1012.02 1013.08 1013.11 1013.87 1014.93 1015.50 1015.93 1016.73 1017.36 1017.73 1018.13 1018.60 1018.89 1019.04 1019.49 1019.85 1019.87 1019.95 1020.13 1020.46 1020.63 1020.78 1020.79 1021.06 1021.47 1021.60 1021.69 1021.73
1004.47 1005.55 1006.96 1008.01 1008.33 1007.67 1006.38 1006.04 1006.88 1006.14 1006.29 1004.67 1005.52 1005.28 1006.23 1007.74 1008.61 1008.86 1008.44 1008.49 1009.63 1011.45 1012.95 1013.41 1014.34 1014.58 1015.25 1015.98 1016.60 1017.06 1017.35 1017.77 1018.04 1018.48 1018.58 1018.88 1019.60 1019.74 1019.72 1019.91 1020.29 1020.39 1020.58 1020.66 1020.84 1021.33 1021.47 1021.53 1021.72
1005.05 1006.23 1006.94 1008.64 1008.55 1008.37 1007.72 1007.34 1006.21 1006.87 1006.62 1006.30 1007.68 1007.76 1008.12 1008.73 1009.42 1009.87 1010.13 1009.89 1010.39 1010.48 1012.14 1013.15 1014.64 1014.97 1015.52 1015.90 1016.60 1016.96 1017.41 1017.73 1017.97 1018.22 1018.38 1018.42 1019.06 1019.60 1019.60 1019.68 1020.16 1020.41 1020.34 1020.58 1020.76 1021.19 1021.24 1021.39 1021.64
1005.43 1007.12 1008.06 1009.86 1010.74 1010.32 1009.44 1009.56 1009.47 1008.65 1008.35 1007.18 1008.15 1009.27 1009.65 1009.55 1009.98 1010.17 1010.04 1009.47 1008.65 1009.75 1012.06 1013.28 1014.59 1015.06 1015.85 1016.39 1017.03 1017.31 1017.66 1018.16 1018.45 1018.45 1018.68 1018.82 1019.27 1019.28 1019.72 1019.79 1019.98 1020.30 1020.26 1020.39 1020.76 1021.04 1021.11 1021.20 1021.34
1006.75 1008.15 1010.08 1011.16 1011.46 1011.31 1010.60 1010.36 1009.19 1008.68 1008.71 1008.10 1008.14 1009.41 1009.57 1010.31 1010.08 1010.92 1010.50 1010.33 1010.45 1011.42 1012.70 1013.91 1014.50 1015.25 1016.24 1016.68 1017.11 1017.39 1017.68 1018.27 1018.90 1018.91 1018.85 1018.92 1019.20 1019.47 1019.70 1019.67 1019.87 1020.13 1020.29 1020.47 1020.86 1021.08 1021.04 1021.23 1021.20
1007.40 1008.25 1009.80 1011.31 1011.70 1011.50 1011.01 1009.86 1008.22 1007.84 1007.22 1007.97 1007.75 1008.45 1009.41 1010.75 1011.86 1011.49 1011.89 1011.41 1011.88 1012.75 1012.95 1013.67 1014.28 1014.59 1015.49 1015.91 1016.88 1017.20 1017.55 1017.91 1019.05 1019.12 1019.00 1019.22 1019.29 1019.55 1019.74 1019.56 1019.69 1019.97 1020.20 1020.52 1020.73 1020.83 1020.83 1020.88 1021.01
Wind_Speed
8 7 3 1 5 6 2 4 7 15 11 5 16 13 8 6 3 4 13 19 19 13 11 14 15 16 17 16 15 14 12 12 11 11 10 10 10 10 9 8 8 9 10 10 11 10 11 11 11
4 6 2 3 3 4 4 8 10 17 11 7 20 18 15 7 7 17 14 18 18 13 10 11 16 17 17 16 14 13 12 11 11 11 10 10 10 11 12 14 14 13 12 13 13 12 12 12 11
2 5 2 5 4 5 5 10 14 17 21 5 7 12 8 10 11 8 19 20 19 14 11 14 17 16 17 15 14 12 10 10 10 13 13 13 14 13 13 13 12 12 11 11 10 11 11 11 12
2 3 4 2 8 1 9 9 13 4 14 11 15 11 6 5 6 13 24 22 19 14 13 15 16 17 15 14 13 13 15 15 15 14 11 11 11 12 12 12 11 11 11 11 12 12 12 12 12
1 2 2 4 10 7 5 7 13 8 1 19 15 10 7 10 14 17 22 21 19 13 12 13 17 16 16 17 16 15 15 12 11 10 9 9 9 9 10 11 11 11 11 11 11 12 12 12 12
2 2 3 5 6 11 4 12 14 10 14 19 19 14 6 10 11 12 21 19 18 16 13 12 17 17 15 16 15 14 13 11 9 9 8 7 8 9 8 9 7 7 8 9 9 10 11 12 14
5 2 7 11 15 12 13 14 10 15 18 16 19 14 8 12 13 14 21 19 19 16 13 10 11 15 16 15 14 13 12 10 9 7 5 5 5 6 4 5 5 5 6 7 8 10 10 12 13
3 2 9 15 9 4 6 19 19 7 6 23 19 9 15 15 17 13 22 21 19 17 15 12 11 9 7 7 14 13 12 9 8 7 5 5 4 3 3 2 3 5 7 7 10 13 12 14 15
6 3 10 16 7 6 4 11 7 13 6 4 5 15 20 17 12 14 20 18 17 16 16 14 13 11 9 7 9 11 12 8 4 5 11 3 2 6 6 1 1 6 10 10 10 12 10 10 12
1 4 10 17 9 5 6 5 12 11 17 12 20 16 14 12 8 13 18 17 19 20 17 14 14 14 12 9 8 6 6 5 5 6 6 5 5 6 7 8 7 11 11 14 15 11 11 10 5
9 9 14 19 12 12 6 11 6 21 12 12 10 5 9 6 7 9 11 16 18 20 14 14 12 13 11 8 5 3 3 4 4 7 6 6 4 5 4 4 4 5 10 4 6 5 4 7 5
7 14 16 18 15 9 4 2 6 18 16 28 22 20 13 11 8 8 9 17 18 18 17 13 10 7 8 6 6 5 5 4 4 5 6 4 3 4 4 3 4 4 3 6 5 4 6 7 6
7 13 14 14 12 8 6 5 9 11 22 22 17 13 10 11 9 8 12 16 18 17 14 11 8 7 8 7 5 5 5 5 5 5 4 4 3 3 3 3 4 4 4 4 5 5 5 5 6
9 9 13 11 12 6 5 4 4 10 17 18 15 13 10 8 11 8 13 18 18 16 14 11 9 7 8 6 8 5 5 6 5 4 3 4 3 3 4 4 5 5 5 5 4 4 4 3 5
10 9 10 9 6 8 7 3 7 21 16 19 14 7 7 8 11 14 13 18 18 15 15 11 10 9 9 7 6 5 4 6 6 4 3 2 4 6 5 5 5 5 5 6 6 6 5 5 4
8 5 6 11 7 11 2 8 9 23 22 20 25 20 11 21 17 15 16 16 17 16 15 12 10 10 9 6 4 4 5 4 7 5 3 3 6 7 5 5 5 5 5 6 5 5 4 4 4
7 6 8 11 14 11 10 7 8 17 21 23 26 31 32 27 15 11 15 16 17 18 17 13 10 10 8 6 5 6 6 5 5 5 3 4 6 7 5 5 4 5 5 5 5 4 3 3 4
8 6 9 9 14 9 9 8 9 9 8 30 27 27 20 12 6 9 10 16 17 15 15 15 10 9 8 6 5 4 4 4 5 4 3 5 4 7 5 5 6 5 5 5 5 4 4 1 2
9 6 8 9 13 2 9 2 6 8 4 21 16 10 17 24 24 11 11 17 15 14 15 15 13 9 6 4 5 4 4 4 4 4 6 6 6 7 7 4 5 4 5 4 5 4 5 4 5
8 8 11 12 9 3 3 5 6 9 6 16 16 14 16 13 13 9 13 15 16 16 14 13 12 10 7 4 3 4 4 4 4 4 5 6 7 6 6 6 5 6 5 7 6 6 4 3 5
6 6 9 9 11 9 4 7 9 10 7 8 11 14 26 32 35 28 18 15 16 17 16 13 12 9 6 6 5 5 6 4 3 3 3 3 7 7 6 6 6 6 6 4 5 6 6 4 4
5 10 8 12 5 4 4 7 9 8 11 7 9 10 28 28 22 23 22 19 18 15 13 14 12 9 5 7 5 9 5 6 4 4 3 4 7 6 6 5 6 5 4 5 3 4 4 4 5
9 6 6 7 8 7 13 4 10 10 8 8 11 12 11 19 24 27 23 20 16 16 14 12 12 8 6 7 8 5 3 4 7 5 7 6 4 6 6 5 5 5 4 4 6 5 7 3 3
7 7 9 7 2 5 7 4 10 9 7 9 7 9 10 19 24 16 13 10 6 5 13 13 10 7 8 8 7 7 8 9 8 6 5 5 3 4 4 6 4 4 6 3 4 4 7 5 4
3 2 4 6 1 9 6 6 9 10 26 27 8 11 17 11 26 21 22 16 14 14 9 10 12 7 8 8 7 6 9 10 10 7 5 6 4 2 5 5 4 2 3 4 4 5 4 3 3
6 5 6 4 5 6 6 4 5 22 21 30 29 23 21 16 12 8 10 10 12 10 7 10 10 9 9 8 7 7 8 6 6 6 5 5 4 5 6 6 5 3 4 4 5 4 3 4 1
7 5 1 8 6 5 2 11 18 23 21 18 15 16 17 13 9 7 10 9 8 13 11 13 10 7 7 8 6 8 7 7 6 6 5 6 7 5 7 6 6 4 2 5 6 4 3 3 3
4 2 8 6 3 7 5 5 2 10 10 15 11 8 12 13 9 12 12 14 14 15 9 13 10 7 6 6 6 6 5 5 5 6 6 8 6 6 6 6 6 4 2 1 5 4 3 3 2
9 3 7 4 2 4 3 3 7 2 6 4 7 6 7 7 7 6 10 7 3 6 11 13 11 8 6 6 6 7 5 7 6 5 5 6 6 7 6 6 6 5 4 3 4 4 5 4 4
7 3 4 6 6 1 3 8 8 9 8 7 6 4 8 8 4 4 1 6 2 6 7 10 10 10 8 8 7 7 7 8 6 5 5 6 6 3 6 5 5 5 5 4 3 4 3 3 2
Wind_Direction
139 151 183 333 70 66 128 234 281 278 298 15 77 91 90 68 134 158 127 121 123 128 128 116 116 107 101 97 93 89 86 81 76 73 69 67 66 64 58 49 45 42 34 30 24 18 14 5 357
173 165 249 273 148 121 222 201 239 253 275 116 92 91 78 74 84 120 118 126 126 129 115 113 111 107 104 102 103 93 89 87 85 78 70 63 57 53 52 48 42 37 31 27 25 20 14 8 358
214 200 133 176 190 206 172 225 213 250 271 189 110 90 75 123 129 107 137 132 116 110 111 115 111 110 107 105 100 104 107 102 95 84 73 63 59 56 52 49 42 37 29 23 18 16 10 5 359
274 4 309 160 260 154 174 210 230 246 284 97 115 79 71 124 96 127 116 114 111 114 115 114 113 108 109 113 113 105 90 81 75 73 75 72 71 66 58 49 38 29 21 15 11 7 0 355 350
308 288 260 279 258 149 213 261 262 207 315 106 104 114 106 113 120 125 125 118 117 116 118 116 114 112 108 104 99 89 91 94 93 93 95 91 84 76 66 51 34 23 14 8 2 355 346 340 335
311 132 332 276 293 169 209 179 198 221 131 108 108 124 108 126 118 136 122 121 123 126 120 119 118 113 110 107 108 110 105 106 104 97 89 89 88 83 75 66 41 20 6 360 347 335 335 333 329
212 301 260 283 272 189 185 213 190 207 152 135 132 122 142 148 162 161 128 127 124 126 119 120 116 120 120 124 121 119 118 115 113 113 112 108 104 110 112 92 61 8 354 345 319 317 331 331 326
213 161 286 271 295 301 304 180 192 228 103 131 133 145 164 174 179 156 132 135 136 134 136 133 129 132 130 136 135 132 130 134 144 151 162 166 171 182 203 197 52 331 320 325 316 317 327 330 327
264 299 261 272 294 234 288 120 144 169 94 151 199 140 152 160 173 129 141 144 139 142 146 150 152 152 147 149 154 147 138 136 99 29 57 105 144 34 17 313 316 299 317 334 311 331 336 0 348
272 241 252 263 281 292 287 218 141 98 76 35 91 107 133 157 173 154 150 156 152 149 153 159 160 156 154 165 159 161 151 125 81 49 37 46 54 36 24 16 37 14 29 15 5 12 13 355 325
262 249 269 279 288 296 217 120 131 102 69 114 113 134 140 172 192 165 162 167 157 150 154 159 160 165 157 147 159 160 130 107 90 61 41 36 44 32 16 17 10 25 30 4 6 355 356 336 339
232 259 257 272 280 298 248 324 183 138 166 145 159 152 158 197 206 179 164 126 126 140 148 151 151 166 142 133 154 144 123 114 87 71 47 40 37 30 354 23 27 42 13 4 358 358 334 1 20
235 251 258 265 278 279 289 339 100 116 151 153 153 168 148 191 200 172 131 136 133 133 140 141 135 120 105 98 98 98 95 99 103 84 65 53 53 24 9 42 42 33 356 1 350 349 357 23 31
250 252 258 270 274 287 296 227 91 186 161 169 171 159 151 241 186 160 142 143 142 138 141 132 120 113 101 109 109 114 116 116 102 95 87 58 63 31 41 45 34 10 0 340 2 360 9 43 45
290 298 309 284 264 273 307 278 252 172 170 156 148 104 356 320 202 172 161 143 143 143 139 124 120 117 96 100 106 125 123 123 116 113 116 81 67 49 79 57 29 347 347 15 14 6 24 13 27
300 300 281 282 276 268 216 256 281 164 155 124 107 112 259 273 236 175 161 143 143 140 129 128 120 106 115 136 121 109 114 116 122 123 111 96 66 62 64 62 22 5 25 31 16 359 356 28 13
287 238 245 265 246 227 179 225 231 161 156 149 148 157 189 225 274 174 160 137 137 137 134 125 127 122 137 134 121 105 106 103 100 112 102 96 70 63 89 69 36 48 37 27 11 348 0 26 8
264 240 270 245 250 230 213 201 228 227 228 165 175 187 200 155 319 148 149 136 136 136 129 130 128 131 148 131 119 114 110 94 98 107 105 75 73 67 77 65 58 50 46 24 8 357 348 350 4
255 291 316 307 320 144 176 212 258 245 114 149 198 180 131 143 176 217 159 138 131 133 130 137 139 156 149 149 134 142 144 124 101 108 106 79 64 69 62 68 66 78 61 38 18 335 2 349 356
3 345 312 309 315 24 2 310 290 280 218 179 184 178 142 129 112 225 170 154 153 148 142 144 146 153 163 152 153 149 141 119 135 124 97 107 89 84 73 66 54 86 57 38 26 29 2 343 5
324 290 291 281 310 335 90 318 289 285 256 189 190 171 149 154 177 176 178 169 151 149 153 147 146 153 168 150 124 97 91 96 91 95 101 100 103 99 87 74 74 78 69 62 41 30 40 12 325
290 255 269 247 329 278 89 277 294 261 269 194 194 176 167 177 169 168 172 167 161 157 156 149 149 161 155 142 118 141 144 151 156 148 137 105 110 116 108 91 83 95 85 67 53 43 50 55 20
242 356 359 345 348 24 311 20 276 305 276 220 211 207 188 174 168 169 174 163 158 157 153 145 146 154 141 165 141 152 149 123 124 128 126 118 130 148 136 127 86 109 105 87 93 56 43 49 55
10 355 352 343 343 317 277 237 288 282 250 267 254 204 208 173 171 150 122 101 106 160 144 145 150 135 157 143 156 162 158 135 135 138 132 148 156 141 132 121 118 97 110 119 98 95 71 52 45
177 54 320 329 355 235 311 326 244 325 46 26 332 28 20 75 136 133 134 143 152 169 179 147 147 149 164 155 162 174 165 148 149 159 158 156 169 151 136 128 106 114 160 129 111 117 102 73 55
337 169 164 292 315 270 276 259 28 41 38 57 20 48 45 54 54 97 149 137 118 143 139 138 158 156 164 155 167 161 144 149 152 165 170 167 157 156 156 153 138 125 94 137 118 119 148 140 67
311 346 294 229 292 11 327 357 20 18 30 46 54 41 49 83 72 100 137 135 126 138 166 161 161 164 166 156 165 155 149 145 161 163 135 117 132 154 162 145 137 128 67 141 143 136 150 162 171
211 9 23 17 46 315 354 62 15 343 6 36 39 53 84 99 73 114 133 147 160 175 153 147 168 160 172 155 151 156 158 157 150 140 132 131 148 150 143 137 139 150 168 185 124 154 200 185 215
347 29 59 117 175 234 312 229 210 142 302 316 100 91 89 107 109 204 169 220 53 109 157 160 158 147 154 149 155 159 156 132 135 137 126 135 123 135 148 157 163 172 177 146 127 170 225 219 223
282 1 105 103 294 125 138 268 205 210 195 256 119 77 75 111 185 140 316 153 130 188 162 157 161 154 160 160 155 168 152 138 147 157 136 129 134 154 177 180 170 170 149 157 178 225 310 185 307